Regional Weather Roundup
Issued by NWS

Home | Current Version | Previous Version | Graphics & Text | Print | Product List | Glossary On
Versions: 1 2 3 4 5 6 7 8 9 10 11 12 13 14 15 16 17 18 19 20 21 22 23 24 25 26 27 28 29 30 31 32 33 34 35 36 37 38 39 40 41 42 43 44 45 46 47 48 49 50
000
ASUS45 KBOI 141410
RWRID

IDAHO REGIONAL WEATHER ROUNDUP
NATIONAL WEATHER SERVICE BOISE ID
700 AM MST THU DEC 14 2017

NOTE: "FAIR" INDICATES FEW OR NO CLOUDS BELOW 12000 FEET
WITH NO SIGNIFICANT WEATHER AND/OR OBSTRUCTIONS TO VISIBILITY

IDZ012-014-141500-
SOUTHWEST IDAHO


CITY           SKY/WX    TMP DP  RH WIND       PRES   REMARKS
BOISE          LGT SNOW  25  22  88 S5        30.54R FOG     WCI  19
CALDWELL       NOT AVBL
$$

IDZ016-017-141500-
SOUTHCENTRAL IDAHO


CITY           SKY/WX    TMP DP  RH WIND       PRES   REMARKS
BURLEY         FOG       22  20  92 E5        30.49R VSB 1/2 WCI  16
JEROME         CLOUDY    27  22  81 NE7       30.50R HAZE    WCI  19
TWIN FALLS     CLOUDY    24  23  96 E5        30.49R FOG     WCI  18
$$

IDZ019>023-141500-
SOUTHEAST IDAHO


CITY           SKY/WX    TMP DP  RH WIND       PRES   REMARKS
IDAHO FALLS    FOG       21  21 100 SW5       30.47R VSB 1/2 WCI  15
POCATELLO      FOG       21  19  92 CALM      30.49R VSB 1/2
REXBURG        FOG       19  18  95 W3        30.43R VSB 1/4
$$

IDZ006-010-011-018-031-032-141500-
CENTRAL IDAHO MOUNTAINS


CITY           SKY/WX    TMP DP  RH WIND       PRES   REMARKS
MCCALL         FOG       10   6  84 CALM      30.39R VSB 1/2
HAILEY         PTCLDY    18  16  93 NW7       30.45R WCI   8
STANLEY          N/A     13   8  81 CALM      30.46R
SALMON         CLOUDY    22  20  92 CALM      30.51S
CHALLIS        CLOUDY    20  18  92 CALM      30.48R
$$

IDZ002-004-006-007-026-141500-
NORTHERN IDAHO


CITY           SKY/WX    TMP DP  RH WIND       PRES   REMARKS
LEWISTON       CLOUDY    32  28  85 CALM      30.57R
LOWELL           N/A     32  30  92 CALM      30.57R
COEUR D`ALENE  CLOUDY    30  27  88 N8        30.53  WCI  22
MULLAN PASS    PTCLDY    24  21  88 NW3       30.38R
$$



USA.gov is the U.S. government's official web portal to all federal, state and local government web resources and services.